| time (UTC) | temp F | wind direction | speed MPH | gust MPH | rain 1hr in | rain 24hr in | rain mn in | humidity % | barometer mb |
| 20260831232020 | 79 | 192 | 0.0 | 0.0 | 0.00 | 0.18 | 0.18 | 64 | 1017.8 |
| 20260831231720 | 80 | 149 | 0.0 | 2.0 | 0.00 | 0.18 | 0.18 | 64 | 1017.8 |
| 20260831231420 | 80 | 217 | 0.0 | 1.0 | 0.00 | 0.18 | 0.18 | 64 | 1018.0 |
| 20260831231117 | 80 | 196 | 0.0 | 6.0 | 0.00 | 0.18 | 0.18 | 64 | 1017.9 |
| 20260831230818 | 80 | 215 | 1.0 | 6.0 | 0.00 | 0.18 | 0.18 | 64 | 1017.9 |
| 20260831230516 | 80 | 183 | 1.0 | 6.0 | 0.00 | 0.18 | 0.18 | 64 | 1017.7 |
| 20260831225740 | 81 | 167 | 1.0 | 6.0 | 0.00 | 0.18 | 0.18 | 64 | 1017.9 |
| 20260831225443 | 81 | 179 | 1.0 | 6.0 | 0.00 | 0.18 | 0.18 | 63 | 1017.9 |
| 20260831225139 | 81 | 198 | 1.0 | 4.0 | 0.00 | 0.18 | 0.18 | 63 | 1018.0 |
| 20260831224841 | 81 | 134 | 1.0 | 4.0 | 0.00 | 0.18 | 0.18 | 63 | 1018.0 |
| 20260831224535 | 81 | 261 | 1.0 | 3.0 | 0.00 | 0.18 | 0.18 | 63 | 1018.1 |
| 20260831223813 | 81 | 200 | 0.0 | 2.0 | 0.00 | 0.18 | 0.18 | 63 | 1018.0 |
| 20260831223459 | 81 | 204 | 0.0 | 2.0 | 0.00 | 0.18 | 0.18 | 63 | 1017.9 |
| 20260831222740 | 81 | 191 | 2.0 | 5.0 | 0.00 | 0.18 | 0.18 | 63 | 1018.0 |
| 20260831222434 | 81 | 167 | 1.0 | 5.0 | 0.00 | 0.18 | 0.18 | 63 | 1017.9 |
| 20260831222127 | 81 | 188 | 1.0 | 5.0 | 0.00 | 0.18 | 0.18 | 63 | 1018.0 |
| 20260831221815 | 81 | 164 | 2.0 | 5.0 | 0.00 | 0.18 | 0.18 | 63 | 1018.0 |
| 20260831221517 | 81 | 213 | 1.0 | 5.0 | 0.00 | 0.18 | 0.18 | 63 | 1018.0 |
| 20260831221218 | 81 | 127 | 1.0 | 4.0 | 0.00 | 0.18 | 0.18 | 62 | 1018.0 |
| 20260831220919 | 81 | 216 | 1.0 | 4.0 | 0.00 | 0.18 | 0.18 | 63 | 1018.1 |
| 20260831220612 | 81 | 161 | 1.0 | 4.0 | 0.00 | 0.18 | 0.18 | 63 | 1018.1 |
| 20260831220314 | 81 | 240 | 1.0 | 0.0 | 0.00 | 0.18 | 0.18 | 63 | 1018.1 |
| 20260831220003 | 81 | 174 | 2.0 | 7.0 | 0.00 | 0.18 | 0.18 | 62 | 1018.1 |
| 20260831215656 | 81 | 224 | 2.0 | 7.0 | 0.00 | 0.18 | 0.18 | 63 | 1018.1 |
| 20260831215352 | 81 | 267 | 2.0 | 7.0 | 0.00 | 0.18 | 0.18 | 63 | 1018.0 |
| 20260831215054 | 81 | 263 | 2.0 | 7.0 | 0.00 | 0.18 | 0.18 | 63 | 1018.1 |
| 20260831214332 | 81 | 197 | 1.0 | 6.0 | 0.00 | 0.18 | 0.18 | 64 | 1018.2 |
| 20260831214033 | 80 | 234 | 0.0 | 4.0 | 0.00 | 0.18 | 0.18 | 64 | 1018.4 |
| 20260831213720 | 80 | 180 | 0.0 | 2.0 | 0.00 | 0.18 | 0.18 | 64 | 1018.4 |
| 20260831213409 | 80 | 128 | 0.0 | 2.0 | 0.00 | 0.18 | 0.18 | 65 | 1018.5 |
| 20260831213059 | 80 | 194 | 0.0 | 2.0 | 0.00 | 0.18 | 0.18 | 65 | 1018.5 |
| 20260831212801 | 80 | 245 | 0.0 | 2.0 | 0.00 | 0.18 | 0.18 | 65 | 1018.6 |
| 20260831212448 | 80 | 192 | 0.0 | 1.0 | 0.00 | 0.18 | 0.18 | 64 | 1018.6 |
| 20260831212144 | 80 | 235 | 0.0 | 1.0 | 0.00 | 0.18 | 0.18 | 64 | 1018.6 |
| 20260831211844 | 80 | 191 | 0.0 | 3.0 | 0.00 | 0.18 | 0.18 | 64 | 1018.5 |
| 20260831211531 | 80 | 177 | 0.0 | 3.0 | 0.00 | 0.18 | 0.18 | 63 | 1018.5 |
| 20260831211228 | 80 | 166 | 0.0 | 3.0 | 0.00 | 0.18 | 0.18 | 63 | 1018.5 |
| 20260831210458 | 80 | 190 | 1.0 | 3.0 | 0.00 | 0.18 | 0.18 | 63 | 1018.7 |
| 20260831210158 | 80 | 170 | 1.0 | 3.0 | 0.00 | 0.18 | 0.18 | 63 | 1018.7 |
| 20260831205850 | 80 | 203 | 1.0 | 3.0 | 0.00 | 0.18 | 0.18 | 62 | 1018.7 |
| 20260831205550 | 81 | 167 | 0.0 | 3.0 | 0.00 | 0.18 | 0.18 | 63 | 1018.7 |
| 20260831205244 | 81 | 239 | 0.0 | 3.0 | 0.00 | 0.18 | 0.18 | 64 | 1018.8 |
| 20260831204948 | 81 | 213 | 0.0 | 3.0 | 0.00 | 0.18 | 0.18 | 63 | 1018.8 |
| 20260831204640 | 81 | 184 | 1.0 | 4.0 | 0.00 | 0.18 | 0.18 | 63 | 1018.7 |
| 20260831204343 | 81 | 154 | 1.0 | 4.0 | 0.00 | 0.18 | 0.18 | 63 | 1018.7 |
| 20260831204038 | 81 | 192 | 2.0 | 4.0 | 0.00 | 0.18 | 0.18 | 63 | 1018.7 |
| 20260831203737 | 81 | 227 | 1.0 | 4.0 | 0.00 | 0.18 | 0.18 | 63 | 1018.7 |
| 20260831203014 | 80 | 168 | 1.0 | 4.0 | 0.00 | 0.18 | 0.18 | 63 | 1018.7 |
| 20260831202707 | 80 | 167 | 1.0 | 3.0 | 0.00 | 0.18 | 0.18 | 63 | 1018.7 |
| 20260831202408 | 80 | 205 | 0.0 | 3.0 | 0.00 | 0.18 | 0.18 | 64 | 1018.8 |
| 20260831202111 | 80 | 217 | 0.0 | 3.0 | 0.00 | 0.18 | 0.18 | 63 | 1018.8 |
| 20260831201400 | 80 | 197 | 0.0 | 2.0 | 0.00 | 0.18 | 0.18 | 63 | 1018.9 |
| 20260831201052 | 80 | 109 | 0.0 | 2.0 | 0.00 | 0.18 | 0.18 | 64 | 1019.0 |
| 20260831200742 | 80 | 203 | 0.0 | 2.0 | 0.00 | 0.18 | 0.18 | 63 | 1019.1 |
| 20260831200438 | 80 | 154 | 0.0 | 0.0 | 0.00 | 0.18 | 0.18 | 64 | 1019.1 |
| 20260831200129 | 80 | 219 | 0.0 | 0.0 | 0.00 | 0.18 | 0.18 | 63 | 1019.1 |
| 20260831195819 | 80 | 130 | 0.0 | 2.0 | 0.00 | 0.18 | 0.18 | 64 | 1019.2 |
| 20260831195515 | 80 | 204 | 0.0 | 0.0 | 0.00 | 0.18 | 0.18 | 63 | 1019.1 |
| 20260831194744 | 80 | 212 | 0.0 | 1.0 | 0.00 | 0.18 | 0.18 | 62 | 1019.1 |
| 20260831194444 | 80 | 139 | 0.0 | 1.0 | 0.00 | 0.18 | 0.18 | 62 | 1019.1 |
| 20260831194144 | 80 | 128 | 0.0 | 1.0 | 0.00 | 0.18 | 0.18 | 63 | 1019.2 |
| 20260831193832 | 80 | 229 | 0.0 | 0.0 | 0.00 | 0.18 | 0.18 | 63 | 1019.2 |
| 20260831193536 | 80 | 111 | 0.0 | 0.0 | 0.00 | 0.18 | 0.18 | 63 | 1019.2 |
| 20260831193232 | 80 | 111 | 0.0 | 1.0 | 0.00 | 0.18 | 0.18 | 63 | 1019.2 |
| 20260831192919 | 80 | 150 | 0.0 | 1.0 | 0.00 | 0.18 | 0.18 | 63 | 1019.2 |
| 20260831192615 | 80 | 169 | 0.0 | 1.0 | 0.00 | 0.18 | 0.18 | 63 | 1019.3 |
| 20260831192309 | 80 | 134 | 0.0 | 3.0 | 0.00 | 0.18 | 0.18 | 63 | 1019.3 |
| 20260831192011 | 80 | 139 | 0.0 | 3.0 | 0.00 | 0.18 | 0.18 | 63 | 1019.4 |
| 20260831191711 | 80 | 224 | 0.0 | 3.0 | 0.00 | 0.18 | 0.18 | 62 | 1019.5 |
| 20260831191415 | 81 | 211 | 0.0 | 2.0 | 0.00 | 0.18 | 0.18 | 62 | 1019.6 |
| 20260831191119 | 81 | 198 | 0.0 | 1.0 | 0.00 | 0.18 | 0.18 | 62 | 1019.6 |
| 20260831190809 | 81 | 144 | 0.0 | 1.0 | 0.00 | 0.18 | 0.18 | 61 | 1019.6 |
| 20260831190038 | 81 | 91 | 0.0 | 3.0 | 0.00 | 0.18 | 0.18 | 60 | 1019.7 |
| 20260831184438 | 82 | 163 | 0.0 | 5.0 | 0.00 | 0.18 | 0.18 | 60 | 1019.7 |
| 20260831184133 | 82 | 190 | 1.0 | 5.0 | 0.00 | 0.18 | 0.18 | 62 | 1019.7 |
| 20260831183827 | 82 | 110 | 1.0 | 5.0 | 0.00 | 0.18 | 0.18 | 60 | 1019.7 |
| 20260831183529 | 82 | 73 | 1.0 | 5.0 | 0.00 | 0.18 | 0.18 | 61 | 1019.7 |
| 20260831183227 | 82 | 124 | 1.0 | 4.0 | 0.00 | 0.18 | 0.18 | 62 | 1019.7 |
| 20260831182506 | 81 | 90 | 0.0 | 2.0 | 0.00 | 0.18 | 0.18 | 61 | 1019.7 |
| 20260831182153 | 81 | 103 | 0.0 | 3.0 | 0.00 | 0.18 | 0.18 | 61 | 1019.7 |
| 20260831181857 | 81 | 313 | 0.0 | 3.0 | 0.00 | 0.18 | 0.18 | 61 | 1019.7 |
| 20260831181601 | 81 | 248 | 0.0 | 3.0 | 0.00 | 0.18 | 0.18 | 62 | 1019.8 |
| 20260831181257 | 81 | 113 | 0.0 | 3.0 | 0.00 | 0.18 | 0.18 | 62 | 1019.8 |
| 20260831180533 | 80 | 171 | 0.0 | 3.0 | 0.00 | 0.18 | 0.18 | 61 | 1019.8 |
| 20260831180223 | 80 | 111 | 0.0 | 2.0 | 0.00 | 0.18 | 0.18 | 62 | 1019.8 |
| 20260831175909 | 80 | 65 | 0.0 | 2.0 | 0.00 | 0.18 | 0.18 | 61 | 1019.8 |
| 20260831175605 | 80 | 157 | 0.0 | 2.0 | 0.00 | 0.18 | 0.18 | 62 | 1019.9 |
| 20260831174408 | 80 | 67 | 0.0 | 3.0 | 0.00 | 0.18 | 0.18 | 60 | 1020.0 |
| 20260831174111 | 80 | 71 | 0.0 | 3.0 | 0.00 | 0.18 | 0.18 | 61 | 1020.0 |
| 20260831173803 | 80 | 61 | 0.0 | 3.0 | 0.00 | 0.18 | 0.18 | 61 | 1020.0 |
| 20260831173453 | 80 | 83 | 0.0 | 3.0 | 0.00 | 0.18 | 0.18 | 60 | 1020.0 |
| 20260831173139 | 80 | 122 | 0.0 | 3.0 | 0.00 | 0.18 | 0.18 | 61 | 1020.0 |
| 20260831172831 | 81 | 109 | 0.0 | 2.0 | 0.00 | 0.18 | 0.18 | 62 | 1020.0 |
| 20260831172522 | 81 | 68 | 0.0 | 2.0 | 0.00 | 0.18 | 0.18 | 62 | 1020.0 |
| 20260831172212 | 81 | 135 | 0.0 | 2.0 | 0.00 | 0.18 | 0.18 | 60 | 1020.0 |
| 20260831171859 | 81 | 175 | 0.0 | 2.0 | 0.00 | 0.18 | 0.18 | 61 | 1019.9 |
| 20260831171134 | 81 | 170 | 1.0 | 4.0 | 0.00 | 0.18 | 0.18 | 59 | 1020.0 |
| 20260831170833 | 81 | 157 | 0.0 | 4.0 | 0.00 | 0.18 | 0.18 | 60 | 1020.0 |
| 20260831170528 | 81 | 202 | 0.0 | 4.0 | 0.00 | 0.18 | 0.18 | 61 | 1020.1 |
| 20260831165811 | 81 | 160 | 0.0 | 4.0 | 0.00 | 0.18 | 0.18 | 60 | 1020.1 |
| 20260831165514 | 81 | 217 | 0.0 | 3.0 | 0.00 | 0.18 | 0.18 | 62 | 1020.1 |
| 20260831165204 | 81 | 105 | 0.0 | 2.0 | 0.00 | 0.18 | 0.18 | 61 | 1020.2 |
| 20260831164904 | 81 | 10 | 0.0 | 3.0 | 0.00 | 0.18 | 0.18 | 62 | 1020.1 |
| 20260831164603 | 81 | 295 | 0.0 | 3.0 | 0.00 | 0.18 | 0.18 | 62 | 1020.1 |
| 20260831164256 | 80 | 151 | 0.0 | 3.0 | 0.00 | 0.18 | 0.18 | 62 | 1020.1 |
| 20260831163944 | 80 | 201 | 0.0 | 3.0 | 0.00 | 0.18 | 0.18 | 63 | 1020.2 |
| 20260831163646 | 80 | 335 | 0.0 | 4.0 | 0.00 | 0.18 | 0.18 | 66 | 1020.2 |
| 20260831162915 | 79 | 341 | 0.0 | 4.0 | 0.00 | 0.18 | 0.18 | 66 | 1020.3 |
| 20260831162606 | 79 | 306 | 0.0 | 4.0 | 0.00 | 0.18 | 0.18 | 65 | 1020.4 |
| 20260831162307 | 79 | 315 | 0.0 | 4.0 | 0.00 | 0.18 | 0.18 | 66 | 1020.4 |
| 20260831162003 | 79 | 250 | 0.0 | 4.0 | 0.00 | 0.18 | 0.18 | 67 | 1020.4 |
| 20260831161701 | 79 | 117 | 1.0 | 0.0 | 0.00 | 0.18 | 0.18 | 67 | 1020.4 |
| 20260831160935 | 78 | 130 | 1.0 | 4.0 | 0.00 | 0.18 | 0.18 | 66 | 1020.5 |
| 20260831160159 | 77 | 69 | 1.0 | 4.0 | 0.00 | 0.18 | 0.18 | 69 | 1020.5 |
| 20260831155902 | 77 | 234 | 1.0 | 4.0 | 0.00 | 0.18 | 0.18 | 69 | 1020.6 |
| 20260831155601 | 77 | 226 | 0.0 | 4.0 | 0.00 | 0.18 | 0.18 | 69 | 1020.6 |
| 20260831155255 | 76 | 170 | 0.0 | 4.0 | 0.00 | 0.18 | 0.18 | 70 | 1020.6 |
| 20260831154953 | 76 | 115 | 0.0 | 3.0 | 0.00 | 0.18 | 0.18 | 70 | 1020.6 |
| 20260831154657 | 76 | 187 | 0.0 | 3.0 | 0.00 | 0.18 | 0.18 | 71 | 1020.6 |
| 20260831154353 | 76 | 242 | 0.0 | 3.0 | 0.00 | 0.18 | 0.18 | 71 | 1020.6 |
| 20260831154057 | 76 | 299 | 0.0 | 1.0 | 0.00 | 0.18 | 0.18 | 70 | 1020.5 |
| 20260831153750 | 76 | 221 | 0.0 | 0.0 | 0.00 | 0.18 | 0.18 | 70 | 1020.6 |
| 20260831153449 | 76 | 198 | 1.0 | 5.0 | 0.00 | 0.18 | 0.18 | 70 | 1020.5 |
| 20260831153139 | 76 | 236 | 1.0 | 5.0 | 0.00 | 0.18 | 0.18 | 71 | 1020.4 |
| 20260831152838 | 75 | 175 | 0.0 | 5.0 | 0.00 | 0.18 | 0.18 | 71 | 1020.4 |
| 20260831152533 | 75 | 78 | 1.0 | 5.0 | 0.00 | 0.18 | 0.18 | 71 | 1020.5 |
| 20260831152236 | 75 | 256 | 0.0 | 3.0 | 0.00 | 0.18 | 0.18 | 71 | 1020.4 |
| 20260831151937 | 75 | 182 | 1.0 | 3.0 | 0.00 | 0.18 | 0.18 | 71 | 1020.5 |
| 20260831151631 | 75 | 69 | 0.0 | 3.0 | 0.00 | 0.18 | 0.18 | 72 | 1020.5 |
| 20260831150907 | 74 | 179 | 0.0 | 3.0 | 0.00 | 0.18 | 0.18 | 72 | 1020.6 |
| 20260831150142 | 74 | 155 | 0.0 | 3.0 | 0.00 | 0.18 | 0.18 | 72 | 1020.7 |
| 20260831145833 | 74 | 223 | 0.0 | 7.0 | 0.00 | 0.18 | 0.18 | 73 | 1020.8 |
| 20260831145522 | 73 | 140 | 0.0 | 7.0 | 0.00 | 0.18 | 0.18 | 73 | 1020.7 |
| 20260831145225 | 73 | 0 | 0.0 | 7.0 | 0.00 | 0.18 | 0.18 | 73 | 1020.7 |
| 20260831144914 | 73 | 76 | 0.0 | 3.0 | 0.00 | 0.18 | 0.18 | 73 | 1020.6 |
| 20260831144611 | 73 | 58 | 0.0 | 3.0 | 0.00 | 0.18 | 0.18 | 73 | 1020.8 |
| 20260831143833 | 73 | 128 | 1.0 | 2.0 | 0.00 | 0.18 | 0.18 | 73 | 1020.6 |
| 20260831143119 | 73 | 109 | 0.0 | 3.0 | 0.00 | 0.18 | 0.18 | 75 | 1020.8 |
| 20260831142812 | 73 | 66 | 0.0 | 0.0 | 0.00 | 0.18 | 0.18 | 77 | 1020.7 |
| 20260831142049 | 72 | 103 | 0.0 | 3.0 | 0.00 | 0.18 | 0.18 | 77 | 1020.9 |
| 20260831141750 | 72 | 107 | 0.0 | 3.0 | 0.00 | 0.18 | 0.18 | 77 | 1021.0 |
| 20260831141033 | 72 | 80 | 0.0 | 1.0 | 0.00 | 0.18 | 0.18 | 77 | 1021.0 |
| 20260831140734 | 72 | 109 | 0.0 | 0.0 | 0.00 | 0.18 | 0.18 | 77 | 1021.0 |
| 20260831140427 | 72 | 109 | 0.0 | 0.0 | 0.00 | 0.18 | 0.18 | 78 | 1021.0 |
| 20260831135656 | 72 | 227 | 0.0 | 0.0 | 0.00 | 0.18 | 0.18 | 78 | 1021.1 |
| 20260831135352 | 72 | 224 | 0.0 | 0.0 | 0.00 | 0.18 | 0.18 | 78 | 1021.0 |
| 20260831135039 | 72 | 104 | 0.0 | 0.0 | 0.00 | 0.18 | 0.18 | 78 | 1021.1 |
| 20260831134302 | 72 | 180 | 0.0 | 0.0 | 0.00 | 0.18 | 0.18 | 78 | 1021.0 |
| 20260831133956 | 72 | 179 | 0.0 | 0.0 | 0.00 | 0.18 | 0.18 | 78 | 1021.0 |
| 20260831133656 | 71 | 179 | 0.0 | 0.0 | 0.00 | 0.18 | 0.18 | 78 | 1021.0 |
| 20260831133343 | 71 | 179 | 0.0 | 0.0 | 0.00 | 0.18 | 0.18 | 78 | 1021.0 |
| 20260831133032 | 71 | 179 | 0.0 | 0.0 | 0.00 | 0.18 | 0.18 | 78 | 1021.1 |
| 20260831132725 | 71 | 185 | 0.0 | 0.0 | 0.00 | 0.18 | 0.18 | 78 | 1021.1 |
| 20260831132428 | 71 | 302 | 0.0 | 0.0 | 0.00 | 0.18 | 0.18 | 78 | 1021.1 |
| 20260831132127 | 71 | 109 | 0.0 | 0.0 | 0.00 | 0.18 | 0.18 | 78 | 1021.1 |
| 20260831131409 | 71 | 355 | 0.0 | 0.0 | 0.00 | 0.18 | 0.18 | 78 | 1021.0 |
| 20260831130643 | 71 | 355 | 0.0 | 0.0 | 0.00 | 0.18 | 0.18 | 78 | 1020.9 |
| 20260831130343 | 71 | 294 | 0.0 | 0.0 | 0.00 | 0.18 | 0.18 | 78 | 1020.9 |
| 20260831130046 | 71 | 294 | 0.0 | 0.0 | 0.00 | 0.18 | 0.18 | 78 | 1020.8 |
| 20260831125736 | 71 | 294 | 0.0 | 0.0 | 0.00 | 0.18 | 0.18 | 78 | 1020.8 |
| 20260831125000 | 71 | 294 | 0.0 | 0.0 | 0.00 | 0.18 | 0.18 | 78 | 1020.9 |
| 20260831124700 | 71 | 294 | 0.0 | 0.0 | 0.00 | 0.18 | 0.18 | 78 | 1020.9 |
| 20260831123937 | 71 | 294 | 0.0 | 0.0 | 0.00 | 0.18 | 0.18 | 78 | 1021.0 |
| 20260831123626 | 70 | 294 | 0.0 | 0.0 | 0.00 | 0.18 | 0.18 | 78 | 1020.8 |
| 20260831123329 | 70 | 294 | 0.0 | 0.0 | 0.00 | 0.18 | 0.18 | 78 | 1020.8 |
| 20260831123033 | 70 | 294 | 0.0 | 0.0 | 0.00 | 0.18 | 0.18 | 78 | 1020.8 |
| 20260831122728 | 70 | 294 | 0.0 | 0.0 | 0.00 | 0.18 | 0.18 | 78 | 1020.8 |
| 20260831122429 | 70 | 294 | 0.0 | 0.0 | 0.00 | 0.18 | 0.18 | 78 | 1020.8 |
| 20260831122118 | 70 | 294 | 0.0 | 0.0 | 0.00 | 0.18 | 0.18 | 77 | 1020.8 |
| 20260831121810 | 70 | 294 | 0.0 | 0.0 | 0.00 | 0.18 | 0.18 | 77 | 1020.8 |
| 20260831121457 | 70 | 294 | 0.0 | 0.0 | 0.00 | 0.18 | 0.18 | 77 | 1020.8 |
| 20260831121145 | 70 | 294 | 0.0 | 0.0 | 0.00 | 0.18 | 0.18 | 77 | 1020.8 |
| 20260831120837 | 70 | 294 | 0.0 | 0.0 | 0.00 | 0.18 | 0.18 | 77 | 1020.7 |
| 20260831120534 | 70 | 295 | 0.0 | 0.0 | 0.00 | 0.18 | 0.18 | 77 | 1020.7 |
| 20260831120238 | 70 | 295 | 0.0 | 0.0 | 0.00 | 0.18 | 0.18 | 77 | 1020.7 |
| 20260831115942 | 70 | 316 | 0.0 | 0.0 | 0.00 | 0.18 | 0.18 | 77 | 1020.7 |
| 20260831115213 | 70 | 190 | 0.0 | 0.0 | 0.00 | 0.18 | 0.18 | 77 | 1020.4 |
| 20260831113157 | 70 | 251 | 0.0 | 0.0 | 0.00 | 0.18 | 0.18 | 77 | 1020.5 |
| 20260831112853 | 69 | 251 | 0.0 | 0.0 | 0.00 | 0.18 | 0.18 | 77 | 1020.6 |
| 20260831112552 | 69 | 251 | 0.0 | 0.0 | 0.00 | 0.18 | 0.18 | 77 | 1020.6 |
| 20260831112252 | 69 | 251 | 0.0 | 0.0 | 0.00 | 0.18 | 0.18 | 77 | 1020.6 |
| 20260831111940 | 69 | 219 | 0.0 | 0.0 | 0.00 | 0.18 | 0.18 | 77 | 1020.6 |
| 20260831111640 | 69 | 219 | 0.0 | 0.0 | 0.00 | 0.18 | 0.18 | 77 | 1020.5 |
| 20260831111342 | 69 | 219 | 0.0 | 0.0 | 0.00 | 0.18 | 0.18 | 77 | 1020.5 |
| 20260831111029 | 69 | 219 | 0.0 | 0.0 | 0.00 | 0.18 | 0.18 | 77 | 1020.5 |
| 20260831110719 | 69 | 219 | 0.0 | 0.0 | 0.00 | 0.18 | 0.18 | 77 | 1020.5 |
| 20260831110406 | 69 | 219 | 0.0 | 0.0 | 0.00 | 0.18 | 0.18 | 77 | 1020.5 |
| 20260831110109 | 69 | 219 | 0.0 | 0.0 | 0.00 | 0.18 | 0.18 | 77 | 1020.4 |
| 20260831105802 | 69 | 219 | 0.0 | 0.0 | 0.00 | 0.18 | 0.18 | 77 | 1020.2 |
| 20260831105502 | 69 | 219 | 0.0 | 0.0 | 0.00 | 0.18 | 0.18 | 77 | 1020.2 |
| 20260831105151 | 69 | 219 | 0.0 | 0.0 | 0.00 | 0.18 | 0.18 | 77 | 1020.2 |
| 20260831104846 | 69 | 219 | 0.0 | 0.0 | 0.00 | 0.18 | 0.18 | 77 | 1020.2 |
| 20260831104547 | 69 | 219 | 0.0 | 0.0 | 0.00 | 0.18 | 0.18 | 77 | 1020.1 |
| 20260831104241 | 69 | 219 | 0.0 | 0.0 | 0.00 | 0.18 | 0.18 | 77 | 1020.0 |
| 20260831103516 | 69 | 219 | 0.0 | 0.0 | 0.00 | 0.18 | 0.18 | 76 | 1020.1 |
| 20260831102757 | 69 | 219 | 0.0 | 0.0 | 0.00 | 0.18 | 0.18 | 76 | 1020.1 |
| 20260831102500 | 69 | 219 | 0.0 | 0.0 | 0.00 | 0.18 | 0.18 | 76 | 1020.1 |
| 20260831101744 | 70 | 219 | 0.0 | 0.0 | 0.00 | 0.18 | 0.18 | 76 | 1020.0 |
| 20260831101434 | 70 | 219 | 0.0 | 0.0 | 0.00 | 0.18 | 0.18 | 76 | 1019.8 |
| 20260831101136 | 69 | 219 | 0.0 | 0.0 | 0.00 | 0.18 | 0.18 | 76 | 1019.9 |
| 20260831100835 | 69 | 219 | 0.0 | 0.0 | 0.00 | 0.18 | 0.18 | 76 | 1019.9 |
| 20260831100526 | 69 | 219 | 0.0 | 0.0 | 0.00 | 0.18 | 0.18 | 76 | 1019.9 |
| 20260831100227 | 69 | 219 | 0.0 | 0.0 | 0.00 | 0.18 | 0.18 | 76 | 1019.9 |
| 20260831095503 | 69 | 218 | 0.0 | 0.0 | 0.00 | 0.18 | 0.18 | 76 | 1020.0 |
| 20260831095158 | 69 | 218 | 0.0 | 0.0 | 0.00 | 0.18 | 0.18 | 76 | 1020.0 |
| 20260831094848 | 70 | 218 | 0.0 | 0.0 | 0.00 | 0.18 | 0.18 | 76 | 1019.9 |
| 20260831094546 | 70 | 202 | 0.0 | 0.0 | 0.00 | 0.18 | 0.18 | 76 | 1020.0 |
| 20260831094247 | 70 | 202 | 0.0 | 0.0 | 0.00 | 0.18 | 0.18 | 76 | 1019.9 |
| 20260831093939 | 70 | 191 | 0.0 | 0.0 | 0.00 | 0.18 | 0.18 | 76 | 1019.9 |
| 20260831093642 | 70 | 192 | 0.0 | 0.0 | 0.00 | 0.18 | 0.18 | 76 | 1019.8 |
| 20260831093344 | 69 | 189 | 0.0 | 0.0 | 0.00 | 0.18 | 0.18 | 76 | 1019.8 |
| 20260831092616 | 69 | 69 | 0.0 | 0.0 | 0.00 | 0.18 | 0.18 | 75 | 1019.8 |
| 20260831091850 | 69 | 234 | 0.0 | 0.0 | 0.00 | 0.18 | 0.18 | 74 | 1019.7 |
| 20260831091546 | 69 | 234 | 0.0 | 0.0 | 0.00 | 0.18 | 0.18 | 74 | 1019.7 |
| 20260831090813 | 69 | 234 | 0.0 | 0.0 | 0.00 | 0.18 | 0.18 | 73 | 1019.6 |
| 20260831090504 | 69 | 234 | 0.0 | 0.0 | 0.00 | 0.18 | 0.18 | 73 | 1019.6 |
| 20260831090201 | 69 | 234 | 0.0 | 0.0 | 0.00 | 0.18 | 0.18 | 72 | 1019.5 |
| 20260831085436 | 69 | 234 | 0.0 | 0.0 | 0.00 | 0.18 | 0.18 | 71 | 1019.4 |
| 20260831085135 | 69 | 234 | 0.0 | 0.0 | 0.00 | 0.18 | 0.18 | 71 | 1019.3 |
| 20260831084834 | 69 | 234 | 0.0 | 0.0 | 0.00 | 0.18 | 0.18 | 71 | 1019.3 |
| 20260831084527 | 69 | 234 | 0.0 | 0.0 | 0.00 | 0.18 | 0.18 | 71 | 1019.3 |
| 20260831084228 | 69 | 234 | 0.0 | 0.0 | 0.00 | 0.18 | 0.18 | 71 | 1019.2 |
| 20260831083927 | 69 | 234 | 0.0 | 0.0 | 0.00 | 0.18 | 0.18 | 71 | 1019.2 |
| 20260831083620 | 69 | 234 | 0.0 | 0.0 | 0.00 | 0.18 | 0.18 | 70 | 1019.3 |
| 20260831083312 | 69 | 234 | 0.0 | 0.0 | 0.00 | 0.18 | 0.18 | 70 | 1019.2 |
| 20260831083005 | 69 | 234 | 0.0 | 0.0 | 0.00 | 0.18 | 0.18 | 70 | 1019.3 |
| 20260831082658 | 69 | 234 | 0.0 | 0.0 | 0.00 | 0.18 | 0.18 | 70 | 1019.2 |
| 20260831082400 | 69 | 234 | 0.0 | 0.0 | 0.00 | 0.18 | 0.18 | 70 | 1019.3 |
| 20260831081204 | 69 | 234 | 0.0 | 0.0 | 0.00 | 0.18 | 0.18 | 70 | 1019.3 |
| 20260831080851 | 69 | 234 | 0.0 | 0.0 | 0.00 | 0.18 | 0.18 | 70 | 1019.1 |
| 20260831080550 | 69 | 234 | 0.0 | 0.0 | 0.00 | 0.18 | 0.18 | 70 | 1019.2 |
| 20260831080253 | 69 | 234 | 0.0 | 0.0 | 0.00 | 0.18 | 0.18 | 70 | 1019.2 |
| 20260831075942 | 69 | 234 | 0.0 | 0.0 | 0.00 | 0.18 | 0.18 | 70 | 1019.3 |
| 20260831075644 | 69 | 234 | 0.0 | 0.0 | 0.00 | 0.18 | 0.18 | 70 | 1019.3 |
| 20260831075341 | 70 | 234 | 0.0 | 0.0 | 0.00 | 0.18 | 0.18 | 70 | 1019.2 |
| 20260831075029 | 70 | 234 | 0.0 | 0.0 | 0.00 | 0.18 | 0.18 | 70 | 1019.1 |
| 20260831074732 | 70 | 234 | 0.0 | 0.0 | 0.00 | 0.18 | 0.18 | 70 | 1019.2 |
| 20260831074436 | 70 | 234 | 0.0 | 0.0 | 0.00 | 0.18 | 0.18 | 70 | 1019.2 |
| 20260831074126 | 70 | 234 | 0.0 | 0.0 | 0.00 | 0.18 | 0.18 | 70 | 1019.3 |
| 20260831073815 | 70 | 304 | 0.0 | 0.0 | 0.00 | 0.18 | 0.18 | 69 | 1019.2 |
| 20260831073511 | 70 | 332 | 0.0 | 0.0 | 0.00 | 0.18 | 0.18 | 69 | 1019.2 |
| 20260831073159 | 70 | 332 | 0.0 | 0.0 | 0.00 | 0.18 | 0.18 | 68 | 1019.3 |
| 20260831072848 | 70 | 332 | 0.0 | 0.0 | 0.00 | 0.18 | 0.18 | 68 | 1019.4 |
| 20260831071658 | 70 | 332 | 0.0 | 0.0 | 0.00 | 0.18 | 0.18 | 68 | 1019.5 |
| 20260831070920 | 70 | 332 | 0.0 | 0.0 | 0.00 | 0.18 | 0.18 | 68 | 1019.4 |
| 20260831070623 | 70 | 332 | 0.0 | 0.0 | 0.00 | 0.18 | 0.18 | 68 | 1019.5 |
| 20260831070326 | 70 | 332 | 0.0 | 0.0 | 0.00 | 0.18 | 0.18 | 67 | 1019.5 |
| 20260831070025 | 70 | 332 | 0.0 | 0.0 | 0.00 | 0.18 | 0.18 | 67 | 1019.5 |
| 20260831065312 | 70 | 187 | 0.0 | 0.0 | 0.00 | 0.18 | 0.18 | 67 | 1019.3 |
| 20260831065014 | 70 | 187 | 0.0 | 0.0 | 0.00 | 0.18 | 0.18 | 67 | 1019.3 |
| 20260831064701 | 70 | 187 | 0.0 | 0.0 | 0.00 | 0.18 | 0.18 | 67 | 1019.4 |
| 20260831064358 | 70 | 187 | 0.0 | 0.0 | 0.00 | 0.18 | 0.18 | 67 | 1019.4 |
| 20260831064059 | 71 | 187 | 0.0 | 0.0 | 0.00 | 0.18 | 0.18 | 67 | 1019.4 |
| 20260831063752 | 71 | 187 | 0.0 | 0.0 | 0.00 | 0.18 | 0.18 | 67 | 1019.5 |
| 20260831063444 | 71 | 187 | 0.0 | 0.0 | 0.00 | 0.18 | 0.18 | 67 | 1019.6 |
| 20260831063142 | 71 | 187 | 0.0 | 0.0 | 0.00 | 0.18 | 0.18 | 67 | 1019.5 |
| 20260831062839 | 71 | 187 | 0.0 | 0.0 | 0.00 | 0.18 | 0.18 | 67 | 1019.5 |
| 20260831061703 | 71 | 187 | 0.0 | 0.0 | 0.00 | 0.18 | 0.18 | 66 | 1019.8 |
| 20260831061355 | 71 | 187 | 0.0 | 0.0 | 0.00 | 0.18 | 0.18 | 66 | 1019.9 |
| 20260831061048 | 71 | 187 | 0.0 | 0.0 | 0.00 | 0.18 | 0.18 | 66 | 1019.9 |
| 20260831060752 | 71 | 187 | 0.0 | 0.0 | 0.00 | 0.18 | 0.18 | 66 | 1019.9 |
| 20260831060451 | 71 | 187 | 0.0 | 0.0 | 0.00 | 0.18 | 0.18 | 66 | 1019.8 |
| 20260831060147 | 71 | 187 | 0.0 | 0.0 | 0.00 | 0.18 | 0.18 | 66 | 1019.7 |
| 20260831055838 | 71 | 187 | 0.0 | 0.0 | 0.00 | 0.18 | 0.18 | 66 | 1019.7 |
| 20260831055129 | 71 | 71 | 0.0 | 0.0 | 0.00 | 0.18 | 0.18 | 65 | 1019.6 |
| 20260831054833 | 71 | 71 | 0.0 | 0.0 | 0.00 | 0.18 | 0.18 | 65 | 1019.7 |
| 20260831054526 | 71 | 194 | 0.0 | 0.0 | 0.00 | 0.18 | 0.18 | 65 | 1019.8 |
| 20260831054228 | 71 | 203 | 0.0 | 0.0 | 0.00 | 0.16 | 0.17 | 65 | 1019.8 |
| 20260831053917 | 72 | 144 | 0.0 | 0.0 | 0.00 | 0.16 | 0.17 | 65 | 1019.8 |
| 20260831053614 | 72 | 105 | 0.0 | 0.0 | 0.00 | 0.16 | 0.17 | 65 | 1019.9 |
| 20260831053314 | 72 | 107 | 0.0 | 0.0 | 0.00 | 0.16 | 0.17 | 65 | 1019.9 |
| 20260831053002 | 72 | 107 | 0.0 | 0.0 | 0.04 | 0.16 | 0.17 | 65 | 1020.0 |
| 20260831052701 | 72 | 114 | 0.0 | 2.0 | 0.05 | 0.16 | 0.17 | 65 | 1020.0 |
| 20260831051938 | 72 | 217 | 0.0 | 0.0 | 0.13 | 0.16 | 0.17 | 64 | 1020.4 |
| 20260831051625 | 72 | 142 | 0.0 | 5.0 | 0.43 | 0.16 | 0.17 | 64 | 1020.3 |
| 20260831051321 | 73 | 147 | 1.0 | 5.0 | 1.10 | 0.12 | 0.13 | 64 | 1020.4 |
| 20260831051011 | 73 | 263 | 0.0 | 5.0 | 0.55 | 0.08 | 0.09 | 64 | 1020.6 |
| 20260831050658 | 73 | 268 | 0.0 | 3.0 | 0.43 | 0.04 | 0.05 | 63 | 1020.5 |
| 20260831045935 | 73 | 254 | 0.0 | 3.0 | 0.00 | 0.00 | 0.00 | 63 | 1020.5 |
| 20260831045635 | 73 | 219 | 0.0 | 1.0 | 0.00 | 0.00 | 0.00 | 64 | 1020.3 |
| 20260831044915 | 73 | 254 | 0.0 | 0.0 | 0.00 | 0.00 | 0.00 | 64 | 1020.0 |
| 20260831044605 | 73 | 240 | 0.0 | 0.0 | 0.00 | 0.00 | 0.00 | 63 | 1019.9 |
| 20260831044259 | 74 | 236 | 0.0 | 0.0 | 0.00 | 0.00 | 0.00 | 64 | 1019.9 |
| 20260831043949 | 74 | 236 | 0.0 | 0.0 | 0.00 | 0.00 | 0.00 | 64 | 1019.8 |
| 20260831043639 | 74 | 236 | 0.0 | 0.0 | 0.00 | 0.00 | 0.00 | 64 | 1019.8 |
| 20260831043334 | 74 | 236 | 0.0 | 0.0 | 0.00 | 0.00 | 0.00 | 64 | 1019.7 |
| 20260831043028 | 74 | 236 | 0.0 | 0.0 | 0.00 | 0.00 | 0.00 | 63 | 1019.7 |
| 20260831042713 | 74 | 236 | 0.0 | 0.0 | 0.00 | 0.00 | 0.00 | 63 | 1019.8 |
| 20260831042407 | 74 | 236 | 0.0 | 0.0 | 0.00 | 0.00 | 0.00 | 63 | 1019.8 |
| 20260831042056 | 74 | 236 | 0.0 | 0.0 | 0.00 | 0.00 | 0.00 | 63 | 1019.8 |
| 20260831040901 | 74 | 201 | 0.0 | 0.0 | 0.00 | 0.00 | 0.00 | 63 | 1019.8 |
| 20260831040126 | 75 | 117 | 0.0 | 0.0 | 0.00 | 0.00 | 0.00 | 63 | 1019.8 |
| 20260831035819 | 75 | 117 | 0.0 | 0.0 | 0.00 | 0.00 | 0.00 | 63 | 1019.9 |
| 20260831035506 | 75 | 117 | 0.0 | 1.0 | 0.00 | 0.00 | 0.00 | 62 | 1019.9 |
| 20260831035157 | 75 | 117 | 0.0 | 1.0 | 0.00 | 0.00 | 0.00 | 62 | 1020.0 |
| 20260831034857 | 74 | 232 | 0.0 | 0.0 | 0.00 | 0.00 | 0.00 | 62 | 1020.2 |
| 20260831034549 | 74 | 267 | 0.0 | 1.0 | 0.00 | 0.00 | 0.00 | 61 | 1020.2 |
| 20260831033811 | 74 | 61 | 0.0 | 0.0 | 0.00 | 0.00 | 0.00 | 62 | 1020.2 |
| 20260831033500 | 74 | 61 | 0.0 | 0.0 | 0.00 | 0.00 | 0.00 | 62 | 1020.2 |
| 20260831033153 | 74 | 61 | 0.0 | 1.0 | 0.00 | 0.00 | 0.00 | 62 | 1020.1 |
| 20260831032842 | 74 | 16 | 0.0 | 1.0 | 0.00 | 0.00 | 0.00 | 62 | 1020.2 |
| 20260831032532 | 74 | 67 | 0.0 | 1.0 | 0.00 | 0.00 | 0.00 | 62 | 1020.2 |
| 20260831032230 | 74 | 12 | 0.0 | 0.0 | 0.00 | 0.00 | 0.00 | 62 | 1020.3 |
| 20260831031926 | 74 | 10 | 0.0 | 0.0 | 0.00 | 0.00 | 0.00 | 62 | 1020.3 |
| 20260831031616 | 74 | 22 | 0.0 | 0.0 | 0.00 | 0.00 | 0.00 | 62 | 1020.3 |
| 20260831031304 | 74 | 22 | 0.0 | 0.0 | 0.00 | 0.00 | 0.00 | 62 | 1020.2 |
| 20260831031008 | 74 | 22 | 0.0 | 0.0 | 0.00 | 0.00 | 0.00 | 62 | 1020.2 |
| 20260831030705 | 75 | 22 | 0.0 | 0.0 | 0.00 | 0.00 | 0.00 | 62 | 1020.2 |
| 20260831030353 | 75 | 22 | 0.0 | 1.0 | 0.00 | 0.00 | 0.00 | 62 | 1020.2 |
| 20260831030051 | 75 | 355 | 0.0 | 1.0 | 0.00 | 0.00 | 0.00 | 62 | 1020.2 |
| 20260831025752 | 75 | 43 | 0.0 | 1.0 | 0.00 | 0.00 | 0.00 | 63 | 1020.2 |
| 20260831025443 | 75 | 88 | 0.0 | 1.0 | 0.00 | 0.00 | 0.00 | 63 | 1020.2 |
| 20260831025144 | 75 | 85 | 0.0 | 1.0 | 0.00 | 0.00 | 0.00 | 63 | 1020.2 |
| 20260831024840 | 75 | 74 | 0.0 | 1.0 | 0.00 | 0.00 | 0.00 | 63 | 1020.2 |
| 20260831024527 | 75 | 304 | 0.0 | 0.0 | 0.00 | 0.00 | 0.00 | 63 | 1020.3 |
| 20260831023344 | 75 | 304 | 0.0 | 0.0 | 0.00 | 0.00 | 0.00 | 62 | 1020.3 |
| 20260831023047 | 75 | 304 | 0.0 | 0.0 | 0.00 | 0.00 | 0.00 | 62 | 1020.3 |
| 20260831022737 | 76 | 304 | 0.0 | 0.0 | 0.00 | 0.00 | 0.00 | 62 | 1020.3 |
| 20260831022433 | 76 | 304 | 0.0 | 0.0 | 0.00 | 0.00 | 0.00 | 62 | 1020.2 |
| 20260831022134 | 76 | 304 | 0.0 | 0.0 | 0.00 | 0.00 | 0.00 | 62 | 1020.3 |
| 20260831021837 | 76 | 304 | 0.0 | 0.0 | 0.00 | 0.00 | 0.00 | 62 | 1020.3 |
| 20260831021115 | 76 | 304 | 0.0 | 0.0 | 0.00 | 0.00 | 0.00 | 62 | 1020.3 |
| 20260831020354 | 76 | 304 | 0.0 | 2.0 | 0.00 | 0.00 | 0.00 | 62 | 1020.3 |
| 20260831020054 | 76 | 291 | 0.0 | 2.0 | 0.00 | 0.00 | 0.00 | 62 | 1020.3 |
| 20260831015749 | 76 | 291 | 0.0 | 2.0 | 0.00 | 0.00 | 0.00 | 62 | 1020.3 |
| 20260831015449 | 76 | 291 | 0.0 | 2.0 | 0.00 | 0.00 | 0.00 | 62 | 1020.3 |
| 20260831014724 | 76 | 9 | 0.0 | 2.0 | 0.00 | 0.00 | 0.00 | 62 | 1020.3 |
| 20260831014413 | 76 | 257 | 0.0 | 0.0 | 0.00 | 0.00 | 0.00 | 61 | 1020.3 |
| 20260831013639 | 76 | 257 | 0.0 | 0.0 | 0.00 | 0.00 | 0.00 | 61 | 1020.3 |
| 20260831013336 | 76 | 257 | 0.0 | 1.0 | 0.00 | 0.00 | 0.00 | 61 | 1020.2 |
| 20260831013026 | 76 | 245 | 0.0 | 0.0 | 0.00 | 0.00 | 0.00 | 61 | 1020.1 |
| 20260831012726 | 76 | 158 | 0.0 | 0.0 | 0.00 | 0.00 | 0.00 | 61 | 1020.1 |
| 20260831012418 | 77 | 158 | 0.0 | 0.0 | 0.00 | 0.00 | 0.00 | 61 | 1020.0 |
| 20260831012116 | 77 | 158 | 0.0 | 0.0 | 0.00 | 0.00 | 0.00 | 61 | 1020.0 |
| 20260831011818 | 77 | 158 | 0.0 | 0.0 | 0.00 | 0.00 | 0.00 | 60 | 1020.0 |
| 20260831011102 | 77 | 158 | 0.0 | 0.0 | 0.00 | 0.00 | 0.00 | 60 | 1019.8 |
| 20260831010748 | 77 | 158 | 0.0 | 0.0 | 0.00 | 0.00 | 0.00 | 60 | 1019.8 |
| 20260831010436 | 77 | 158 | 0.0 | 0.0 | 0.00 | 0.00 | 0.00 | 60 | 1019.8 |
| 20260831010127 | 77 | 158 | 0.0 | 0.0 | 0.00 | 0.00 | 0.00 | 59 | 1019.8 |
| 20260831005402 | 77 | 158 | 0.0 | 0.0 | 0.00 | 0.00 | 0.00 | 59 | 1019.7 |
| 20260831004635 | 77 | 158 | 0.0 | 0.0 | 0.00 | 0.00 | 0.00 | 59 | 1019.6 |
| 20260831003902 | 77 | 158 | 0.0 | 0.0 | 0.00 | 0.00 | 0.00 | 58 | 1019.5 |
| 20260831003140 | 78 | 158 | 0.0 | 0.0 | 0.00 | 0.00 | 0.00 | 58 | 1019.1 |
| 20260831002838 | 78 | 158 | 0.0 | 0.0 | 0.00 | 0.00 | 0.00 | 57 | 1019.1 |
| 20260831002107 | 78 | 158 | 0.0 | 0.0 | 0.00 | 0.00 | 0.00 | 57 | 1019.0 |
| 20260831001344 | 78 | 158 | 0.0 | 0.0 | 0.00 | 0.00 | 0.00 | 57 | 1018.9 |
| 20260831001046 | 78 | 158 | 0.0 | 1.0 | 0.00 | 0.00 | 0.00 | 57 | 1018.8 |
| 20260831000740 | 78 | 200 | 0.0 | 1.0 | 0.00 | 0.00 | 0.00 | 56 | 1018.7 |
| 20260831000440 | 78 | 199 | 0.0 | 1.0 | 0.00 | 0.00 | 0.00 | 57 | 1018.7 |
| 20260831000142 | 78 | 147 | 0.0 | 0.0 | 0.00 | 0.00 | 0.00 | 57 | 1018.7 |
| 20260830235845 | 79 | 136 | 0.0 | 0.0 | 0.00 | 0.00 | 0.00 | 57 | 1018.7 |
| 20260830235534 | 79 | 136 | 0.0 | 0.0 | 0.00 | 0.00 | 0.00 | 57 | 1018.7 |
| 20260830235233 | 79 | 136 | 0.0 | 0.0 | 0.00 | 0.00 | 0.00 | 57 | 1018.6 |
| 20260830234933 | 79 | 77 | 0.0 | 0.0 | 0.00 | 0.00 | 0.00 | 56 | 1018.6 |
| 20260830234628 | 79 | 77 | 0.0 | 0.0 | 0.00 | 0.00 | 0.00 | 56 | 1018.7 |
| 20260830234318 | 79 | 77 | 0.0 | 0.0 | 0.00 | 0.00 | 0.00 | 56 | 1018.5 |
| 20260830234010 | 79 | 77 | 0.0 | 0.0 | 0.00 | 0.00 | 0.00 | 56 | 1018.7 |
| 20260830233714 | 79 | 77 | 0.0 | 0.0 | 0.00 | 0.00 | 0.00 | 56 | 1018.7 |
| 20260830233417 | 79 | 77 | 0.0 | 0.0 | 0.00 | 0.00 | 0.00 | 56 | 1018.7 |
| 20260830233120 | 79 | 77 | 0.0 | 0.0 | 0.00 | 0.00 | 0.00 | 55 | 1018.7 |
| 20260830232809 | 80 | 77 | 0.0 | 0.0 | 0.00 | 0.00 | 0.00 | 55 | 1018.8 |
| 20260830232512 | 80 | 77 | 0.0 | 0.0 | 0.00 | 0.00 | 0.00 | 55 | 1018.8 |